sat.trackr.live / text

‹ back to catalog

STARLINK-11244 [DTC]

NORAD 60926 · 2024-155C

PAYLOAD ACTIVE UNKNOWN

§ Identity

Operator
Country
US
Launch date
2024-08-31
Launch site
AFWTR
Launch vehicle
Mass (kg)
RCS (m²)

Purposes: comms

External: N2YO · Heavens-Above · Gunter

§ Orbital elements

Epoch: 2026-05-24T18:56:26.097216Z

Period
91.74 min
Inclination
53.1587°
Eccentricity
0.0000606
Mean motion
15.69702743 rev/d
Perigee alt
359.3 km
Apogee alt
360.2 km
Semi-major
6,737.9 km
B*
6.3914e-8
RAAN
326.1870°
Arg perigee
58.5412°
Mean anomaly
301.5666°
Rev number
10,040

§ Raw data

STARLINK-11244 [DTC]1 60926U 24155C   26144.78919094 -.00000580  00000+0  63914-7 0  99972 60926  53.1587 326.1870 0000606  58.5412 301.5666 15.69702743100404

JSON: /api/v1/satellites/60926 · /tle

For live sub-satellite position, see the globe view (requires WebGL).

§ Visibility from observer

Set your observer location to see the next 7 days of passes ≥ 10°. The values pass through the URL so the page stays shareable.

No JS? Fill the form by hand. The geolocation button needs JavaScript.